Spencer, IA

11:51 PM CST on February 24, 2017 (GMT -0600)
Spencer Municipal

Weather History for KSPW - July, 2013

Change the Weather History Date:

Wednesday, July 3, 2013

  Actual Average Record
Temperature  
Mean Temperature 70 °F -  
Max Temperature 84 °F 85 °F 102 °F (1990)
Min Temperature 55 °F 61 °F 45 °F (2015)
Cooling Degree Days 4    
Growing Degree Days 20 (Base 50)    
Moisture  
Dew Point 55 °F    
Average Humidity 60    
Maximum Humidity 93    
Minimum Humidity 33    
Precipitation  
Precipitation 0.00 in - - ()
Sea Level Pressure  
Sea Level Pressure 30.01 in    
Wind  
Wind Speed 2 mph (South)    
Max Wind Speed 10 mph    
Max Gust Speed -    
Visibility 9 miles    
Events      
Averages and records for this station are not official NWS values.
T = Trace of Precipitation, MM = Missing Value Source: NWS Daily Summary

Daily Weather History Graph

Daily Weather History Graph

Search for Another Location

Airport or City:

Trip Planner

Search our weather history database for the weather conditions in past years. The results will help you decide how hot, cold, wet, or windy it might be!

Date:

Astronomy

Jul. 03, 2013 Rise Set
Actual Time 5:46 AM CDT 9:03 PM CDT
Civil Twilight 5:10 AM CDT 9:38 PM CDT
Nautical Twilight 4:25 AM CDT 10:24 PM CDT
Astronomical Twilight 3:29 AM CDT 11:20 PM CDT
Moon 2:28 AM CDT (7/3) 5:12 PM CDT (7/3)
Length of Visible Light 16h 28m
Length of Day
15h 17m
Waning Crescent, 18% of the Moon is Illuminated
Jul 3
Waning Crescent
Jul 8
New
Jul 15
First Quarter
Jul 22
Full
Jul 29
Last Quarter

Hourly Weather History & Observations

Time (CDT) Temp. Heat Index Dew Point Humidity Pressure Visibility Wind Dir Wind Speed Gust Speed Precip Events Conditions
12:53 AM 60.1 °F - 55.0 °F 83% 30.07 in 10.0 mi Calm Calm - N/A   Clear
1:53 AM 60.1 °F - 55.0 °F 83% 30.06 in 10.0 mi Calm Calm - N/A   Partly Cloudy
2:53 AM 57.0 °F - 54.0 °F 89% 30.06 in 10.0 mi Calm Calm - N/A   Clear
3:53 AM 55.9 °F - 54.0 °F 93% 30.05 in 7.0 mi Calm Calm - N/A   Partly Cloudy
4:53 AM 55.0 °F - 53.1 °F 93% 30.05 in 7.0 mi Calm Calm - N/A   Partly Cloudy
5:53 AM 57.0 °F - 54.0 °F 89% 30.05 in 6.0 mi West 4.6 mph - N/A   Mostly Cloudy
6:53 AM 57.0 °F - 55.0 °F 93% 30.06 in 6.0 mi West 3.5 mph - N/A   Partly Cloudy
7:53 AM 64.9 °F - 57.9 °F 78% 30.06 in 7.0 mi Calm Calm - N/A   Mostly Cloudy
8:53 AM 73.0 °F - 57.0 °F 57% 30.07 in 9.0 mi Calm Calm - N/A   Clear
9:53 AM 75.9 °F - 54.0 °F 46% 30.06 in 10.0 mi Variable 3.5 mph - N/A   Partly Cloudy
10:53 AM 77.0 °F - 55.0 °F 47% 30.05 in 10.0 mi Calm Calm - N/A   Clear
11:53 AM 80.1 °F 80.2 °F 55.9 °F 43% 30.04 in 10.0 mi Variable 5.8 mph - N/A   Clear
12:53 PM 80.1 °F - 52.0 °F 38% 30.03 in 10.0 mi Calm Calm - N/A   Clear
1:53 PM 82.9 °F - 51.1 °F 33% 30.01 in 10.0 mi Calm Calm - N/A   Clear
2:53 PM 82.0 °F - 52.0 °F 35% 30.00 in 10.0 mi Calm Calm - N/A   Partly Cloudy
3:53 PM 82.9 °F 81.9 °F 54.0 °F 37% 29.99 in 10.0 mi East 8.1 mph - N/A   Clear
4:53 PM 84.0 °F - 52.0 °F 33% 29.97 in 10.0 mi South 5.8 mph - N/A   Clear
5:53 PM 82.9 °F - 52.0 °F 34% 29.96 in 10.0 mi Calm Calm - N/A   Clear
6:53 PM 82.9 °F 81.9 °F 54.0 °F 37% 29.94 in 10.0 mi South 4.6 mph - N/A   Clear
7:53 PM 79.0 °F - 55.0 °F 44% 29.94 in 10.0 mi SE 4.6 mph - N/A   Clear
8:53 PM 73.9 °F - 57.9 °F 57% 29.94 in 10.0 mi SSW 5.8 mph - N/A   Clear
9:53 PM 70.0 °F - 57.9 °F 65% 29.95 in 10.0 mi SSE 9.2 mph - N/A   Partly Cloudy
10:53 PM 69.1 °F - 55.9 °F 63% 29.96 in 10.0 mi SSE 10.4 mph - N/A   Clear
11:53 PM 68.0 °F - 55.9 °F 65% 29.96 in 10.0 mi South 6.9 mph - N/A   Clear